Wind_Speed
74 76 78 80 82 82 83 79 71 60 58 60 59 57 49 45 43 44 47 48 52 60 76 90 91 89 89 88 86 85 82 79 74 73 72 70 69 68 68 67 66 66 65
75 76 78 82 84 83 79 70 58 55 57 56 55 51 45 43 43 43 45 47 49 51 56 68 86 95 93 92 91 88 85 81 79 76 74 72 70 69 69 68 68 68 67
77 78 79 82 81 77 70 58 52 54 57 58 58 55 51 49 48 46 45 46 47 49 50 55 66 84 96 96 94 92 90 85 81 79 77 75 72 71 71 69 68 68 69
76 79 81 81 77 74 63 53 53 57 61 63 63 61 57 56 55 52 48 45 45 47 49 49 50 63 81 93 97 96 94 91 86 82 81 80 77 75 73 72 70 69 70
79 82 80 77 73 67 56 52 56 61 65 67 66 64 60 60 61 58 52 46 44 44 44 43 43 45 59 73 85 94 95 94 91 86 84 84 81 78 76 73 72 70 70
82 81 77 71 65 58 53 55 60 65 67 68 66 62 58 56 57 56 52 46 42 40 39 39 38 38 41 51 63 75 86 91 92 90 88 87 86 83 80 78 74 73 72
82 77 71 64 58 55 56 61 65 67 67 66 64 61 56 53 52 51 50 47 42 38 35 35 36 35 34 36 46 56 65 78 86 89 88 88 88 86 84 84 80 76 74
78 73 65 59 57 58 62 65 66 66 64 59 56 53 50 49 48 47 47 45 43 40 35 32 33 33 33 32 34 40 49 57 68 78 84 86 87 87 86 86 85 82 79
74 66 61 61 62 65 66 65 63 59 55 51 49 49 48 46 45 44 44 42 41 40 38 34 30 31 32 32 31 33 37 43 51 58 68 77 82 86 87 89 89 86 84
68 62 62 65 67 67 64 61 56 52 50 50 50 49 48 46 44 44 44 43 41 39 40 39 34 32 33 34 34 34 36 37 40 45 53 62 70 77 81 85 87 88 87
64 63 66 68 68 65 61 55 52 49 48 48 48 48 50 50 48 47 46 45 44 41 39 40 40 37 35 35 37 35 35 36 37 38 41 48 54 62 71 77 81 84 86
64 66 68 68 64 59 55 52 49 49 51 51 50 50 51 52 52 50 48 45 44 43 41 39 41 42 41 38 37 36 34 36 37 37 37 40 42 45 51 60 71 79 83
66 69 69 65 59 54 52 49 49 52 55 55 54 54 54 54 52 49 47 45 43 41 40 38 38 41 44 44 41 38 37 38 38 39 38 38 39 39 41 47 55 65 75
67 69 66 60 55 52 51 50 52 55 58 57 56 56 53 51 50 48 46 44 42 38 34 34 34 36 42 47 45 44 42 41 40 40 42 42 41 42 42 43 47 53 61
68 68 62 55 52 51 51 52 54 58 59 57 57 53 50 51 51 48 45 41 38 35 30 28 29 31 36 45 46 46 45 44 44 44 43 44 43 42 43 46 48 50 56
68 64 56 52 50 51 52 54 56 59 58 58 55 51 53 53 53 50 46 42 38 34 29 26 25 27 32 38 45 47 46 45 45 45 44 44 42 41 45 49 48 47 53
66 58 52 50 50 52 53 55 58 60 60 58 53 54 56 56 55 52 49 47 43 37 32 27 23 24 30 33 39 44 44 42 42 42 42 41 40 39 35 35 36 38 49
61 54 50 50 52 54 54 56 61 61 61 56 53 57 57 56 56 53 51 51 50 42 33 28 23 22 28 31 33 38 38 40 40 40 40 37 35 36 35 39 40 39 47
57 52 51 52 54 55 55 57 62 63 61 55 55 58 57 55 55 54 54 56 54 44 34 26 22 21 25 29 31 35 38 40 42 42 40 38 38 36 41 46 40 39 48
53 51 52 54 55 55 56 59 63 63 60 54 57 59 58 57 58 58 60 61 55 41 30 23 20 19 21 26 30 35 38 42 43 44 44 45 46 40 40 41 37 38 44
51 52 53 55 56 55 56 59 62 62 58 56 58 60 59 60 61 62 66 64 50 34 26 21 17 16 19 23 29 33 37 41 44 45 46 49 50 47 42 39 40 40 41
50 51 53 55 56 55 56 59 61 61 58 57 57 59 60 62 63 65 68 63 43 29 22 18 15 13 16 21 26 27 32 37 43 46 46 48 51 51 47 43 42 42 43
49 51 53 55 56 55 56 59 60 59 58 56 56 58 61 63 66 68 70 62 43 30 21 17 14 13 13 18 22 24 29 37 41 46 46 47 48 50 51 48 46 44 43
48 50 52 54 54 54 56 59 59 58 57 56 56 58 61 62 66 70 72 65 46 33 23 16 14 12 12 14 16 20 25 30 38 43 46 47 47 47 49 51 51 48 46
47 49 51 52 53 53 55 57 58 57 57 56 56 58 60 62 65 69 72 69 53 39 28 18 13 12 12 12 14 16 19 24 30 40 44 46 48 47 47 48 50 52 50
46 48 51 51 51 52 54 57 57 58 57 56 56 59 60 60 62 66 70 70 62 45 33 23 15 10 11 11 13 14 14 18 22 30 40 44 47 49 49 48 48 49 53
Wind_Direction
318 319 319 319 318 317 315 312 307 307 311 311 310 307 303 299 296 294 293 288 281 270 259 253 253 250 247 246 247 247 247 244 242 241 240 239 239 237 237 236 235 235 235
319 320 320 319 319 317 313 308 306 311 314 315 314 307 302 299 297 296 294 293 289 283 271 259 252 249 247 245 244 244 244 243 242 240 239 237 236 236 235 235 235 234 235
321 321 320 320 320 315 309 305 307 312 315 316 314 305 299 300 302 301 300 297 294 291 285 273 259 248 245 244 243 241 241 240 239 239 238 236 235 235 235 235 235 235 235
323 322 323 323 319 313 309 307 313 313 313 314 311 305 296 290 293 296 297 297 296 293 291 286 277 258 246 242 241 241 240 239 238 237 237 237 235 233 233 234 234 234 235
325 325 326 323 318 314 312 311 314 314 313 314 311 308 301 293 289 291 294 296 295 296 293 290 285 275 257 246 240 239 238 238 238 237 236 236 236 236 235 233 233 233 234
327 328 327 323 319 318 318 316 316 316 315 315 314 310 306 300 295 292 292 292 293 293 294 289 285 279 269 257 245 237 236 236 237 237 237 237 237 238 238 236 234 234 234
331 330 327 323 322 322 321 318 318 317 316 315 312 309 306 303 300 296 293 290 289 288 288 287 281 276 268 260 250 240 236 234 234 236 238 238 238 239 240 240 238 237 235
333 330 327 325 324 323 322 321 321 319 318 317 317 317 316 312 309 303 297 292 287 283 281 281 279 272 265 257 248 243 238 236 236 235 237 239 240 241 242 242 242 240 238
333 330 327 325 326 325 325 324 323 324 326 328 327 325 323 320 316 312 308 302 292 283 277 272 272 268 261 255 247 240 237 234 234 235 237 239 241 243 245 245 244 244 242
333 330 328 328 329 328 328 329 330 333 334 333 331 329 326 323 320 316 311 306 301 290 279 270 263 260 257 251 246 246 239 232 228 229 234 238 240 242 244 245 246 245 244
334 331 331 331 331 331 332 335 337 338 338 335 332 330 327 324 320 316 313 308 303 296 284 271 262 256 251 247 245 246 241 234 229 226 229 233 236 239 239 240 241 242 242
334 333 333 333 334 336 337 339 341 341 339 337 333 330 327 324 321 317 314 311 303 296 289 278 264 255 250 245 241 239 237 233 231 229 228 228 230 234 238 239 239 239 239
336 335 335 336 338 340 341 343 342 341 340 338 335 332 329 326 323 319 314 312 309 299 288 280 270 258 249 243 239 237 235 232 232 231 231 231 230 231 235 236 237 237 236
337 337 337 340 342 343 345 344 343 341 339 338 337 335 335 334 332 328 321 315 313 308 293 281 273 263 253 243 237 236 235 233 232 232 232 232 233 236 238 239 239 240 237
338 339 341 345 346 346 346 344 342 341 342 341 340 341 343 343 341 338 333 326 320 314 303 289 276 266 257 246 238 235 233 232 232 234 236 235 236 240 243 246 246 245 234
340 342 345 347 348 347 345 344 343 343 344 344 344 345 345 346 345 343 341 336 328 321 313 300 286 268 259 250 240 235 233 231 230 231 234 235 237 240 247 250 249 240 224
343 345 348 348 347 346 345 346 346 345 346 346 347 347 346 346 345 344 342 342 336 325 315 305 291 273 259 251 243 236 233 231 228 227 229 233 238 245 247 235 223 220 208
345 348 349 348 348 347 347 347 348 347 347 347 348 348 347 347 346 345 343 341 339 331 318 304 291 273 261 253 242 235 228 226 222 220 223 227 230 227 216 206 204 203 207
347 350 350 350 349 348 348 348 348 348 348 349 349 350 350 349 348 346 343 339 336 329 319 307 291 271 260 255 244 229 220 218 218 214 214 217 211 211 212 209 211 208 202
350 351 350 350 351 350 349 349 349 350 350 350 350 351 350 350 350 348 344 341 336 326 315 306 290 270 256 254 247 230 216 214 215 212 209 211 210 212 210 215 220 217 209
352 351 351 351 352 351 351 350 351 352 353 352 351 351 352 352 351 349 347 344 339 328 314 304 291 271 253 249 247 235 217 215 214 213 211 211 211 214 214 215 216 214 210
353 352 352 352 352 352 353 352 353 354 355 354 353 354 356 356 354 353 353 351 347 337 320 306 294 276 255 248 249 243 228 218 217 214 213 214 213 214 214 211 209 212 210
354 353 354 353 354 354 355 355 356 357 357 357 357 358 359 359 359 359 359 360 357 349 332 310 296 283 263 252 250 245 236 225 219 214 211 214 215 215 216 213 209 208 211
355 355 356 356 355 356 358 358 360 360 1 1 1 0 0 1 2 4 4 5 3 359 347 321 297 284 272 261 257 251 243 235 226 219 215 214 215 216 217 218 216 213 212
357 358 358 358 358 359 0 1 3 3 4 4 4 4 3 4 6 7 8 9 8 2 357 344 313 287 276 269 262 258 251 244 233 226 220 217 218 217 217 216 217 218 217
358 359 360 360 360 1 2 3 6 6 8 7 8 8 8 9 11 12 13 13 14 10 6 360 346 313 285 276 269 266 259 252 243 233 228 222 219 220 219 218 217 216 217
Height
5768 5755 5742 5728 5715 5702 5688 5675 5664 5653 5645 5636 5626 5616 5607 5598 5590 5583 5577 5573 5570 5568 5568 5572 5577 5582 5590 5598 5605 5612 5620 5628 5634 5642 5649 5656 5663 5669 5676 5683 5689 5696 5702
5755 5742 5729 5716 5702 5687 5672 5659 5648 5638 5629 5620 5610 5601 5595 5587 5579 5571 5565 5559 5553 5549 5545 5543 5545 5550 5559 5569 5577 5586 5596 5606 5613 5622 5630 5639 5646 5653 5658 5665 5673 5680 5686
5744 5730 5715 5700 5685 5669 5653 5642 5633 5624 5616 5606 5597 5588 5581 5573 5566 5558 5550 5544 5536 5530 5525 5521 5519 5521 5527 5538 5549 5559 5569 5581 5592 5600 5609 5619 5628 5633 5642 5649 5656 5664 5671
5728 5715 5700 5686 5669 5652 5638 5628 5620 5612 5603 5593 5583 5574 5565 5558 5551 5544 5536 5529 5522 5514 5507 5501 5497 5495 5498 5506 5518 5530 5542 5555 5567 5578 5587 5598 5607 5614 5624 5632 5640 5647 5655
5717 5702 5686 5669 5651 5636 5625 5617 5608 5599 5588 5577 5567 5557 5547 5539 5533 5527 5521 5514 5507 5500 5492 5486 5481 5477 5476 5480 5489 5501 5514 5528 5542 5555 5565 5575 5585 5594 5604 5614 5623 5630 5638
5703 5688 5671 5653 5637 5624 5615 5605 5595 5584 5573 5561 5550 5539 5530 5521 5514 5509 5503 5498 5493 5487 5480 5474 5469 5465 5463 5464 5469 5478 5490 5503 5517 5531 5542 5552 5563 5573 5583 5593 5604 5612 5620
5690 5673 5654 5638 5626 5616 5605 5595 5582 5570 5558 5545 5533 5522 5513 5504 5497 5491 5486 5482 5478 5474 5470 5464 5459 5456 5454 5453 5457 5464 5471 5481 5493 5506 5518 5530 5542 5551 5561 5571 5582 5592 5602
5676 5658 5640 5628 5618 5607 5594 5582 5568 5554 5542 5530 5518 5507 5498 5490 5482 5475 5470 5465 5462 5460 5458 5455 5450 5447 5445 5445 5447 5452 5459 5465 5474 5485 5496 5508 5520 5530 5540 5549 5560 5571 5582
5663 5647 5632 5620 5607 5594 5580 5568 5554 5540 5528 5518 5508 5498 5488 5479 5471 5463 5456 5451 5447 5444 5443 5443 5440 5438 5436 5437 5439 5442 5446 5453 5459 5467 5476 5487 5498 5509 5519 5528 5538 5549 5560
5652 5638 5623 5610 5595 5580 5567 5554 5542 5531 5520 5509 5499 5490 5480 5470 5461 5453 5445 5438 5433 5429 5427 5427 5428 5427 5426 5427 5429 5433 5436 5441 5446 5453 5460 5469 5478 5488 5498 5507 5517 5526 5539
5643 5628 5613 5599 5585 5570 5557 5545 5534 5524 5514 5503 5492 5482 5471 5461 5451 5442 5433 5426 5419 5414 5412 5411 5412 5415 5416 5417 5419 5422 5426 5430 5435 5441 5447 5454 5461 5470 5477 5486 5496 5506 5518
5635 5620 5605 5590 5576 5563 5551 5539 5528 5518 5507 5495 5484 5473 5462 5451 5440 5430 5421 5413 5406 5400 5396 5395 5396 5399 5402 5404 5407 5411 5415 5420 5425 5430 5436 5441 5448 5455 5461 5468 5476 5486 5499
5628 5613 5597 5582 5569 5557 5545 5534 5523 5511 5499 5487 5475 5463 5451 5439 5428 5417 5408 5400 5393 5386 5381 5379 5379 5382 5384 5389 5394 5399 5404 5409 5413 5419 5424 5430 5436 5443 5448 5455 5462 5469 5478
5620 5605 5590 5576 5563 5551 5540 5529 5517 5505 5492 5478 5466 5453 5440 5428 5417 5405 5395 5386 5379 5372 5368 5366 5365 5365 5366 5371 5379 5386 5391 5396 5402 5408 5413 5419 5425 5430 5436 5443 5449 5454 5462
5614 5598 5583 5570 5558 5546 5535 5523 5511 5498 5484 5470 5457 5444 5432 5420 5407 5396 5385 5375 5367 5361 5356 5354 5353 5352 5351 5354 5362 5369 5377 5384 5390 5396 5401 5406 5412 5417 5423 5427 5432 5439 5446
5607 5592 5578 5566 5553 5541 5530 5518 5505 5491 5477 5463 5449 5437 5425 5412 5400 5388 5377 5367 5359 5352 5346 5343 5341 5339 5338 5340 5346 5354 5362 5370 5376 5381 5387 5392 5399 5405 5408 5412 5417 5421 5431
5601 5587 5574 5561 5548 5536 5524 5512 5498 5484 5470 5456 5443 5431 5418 5406 5394 5382 5371 5360 5351 5343 5336 5332 5330 5328 5326 5328 5333 5341 5349 5357 5362 5367 5374 5380 5386 5391 5394 5398 5404 5410 5420
5595 5581 5569 5557 5544 5532 5519 5506 5493 5478 5464 5449 5437 5425 5412 5399 5387 5375 5363 5353 5342 5333 5326 5321 5319 5317 5315 5317 5323 5329 5338 5343 5348 5356 5363 5369 5374 5379 5385 5391 5396 5402 5411
5590 5578 5565 5553 5540 5527 5515 5502 5488 5473 5459 5444 5433 5420 5407 5394 5380 5368 5355 5343 5331 5321 5313 5309 5307 5306 5305 5305 5309 5314 5323 5329 5335 5344 5353 5359 5365 5370 5375 5381 5388 5395 5403
5586 5575 5562 5549 5537 5523 5510 5497 5484 5469 5454 5440 5428 5414 5401 5387 5374 5359 5346 5331 5316 5305 5300 5297 5296 5295 5295 5294 5295 5300 5309 5316 5324 5333 5341 5347 5354 5361 5368 5375 5382 5388 5395
5581 5569 5558 5546 5534 5521 5507 5494 5480 5465 5450 5437 5423 5410 5396 5382 5368 5352 5335 5317 5301 5291 5287 5285 5285 5285 5285 5284 5284 5288 5300 5307 5315 5322 5329 5337 5344 5352 5359 5367 5374 5380 5387
5579 5567 5555 5544 5532 5519 5505 5492 5477 5462 5448 5434 5421 5407 5393 5379 5363 5346 5326 5306 5289 5282 5278 5276 5276 5277 5277 5277 5276 5281 5288 5295 5302 5310 5319 5327 5334 5342 5351 5358 5366 5373 5381
5577 5565 5553 5541 5529 5517 5504 5490 5476 5461 5447 5433 5419 5405 5390 5375 5359 5341 5321 5301 5286 5277 5272 5269 5269 5270 5271 5270 5270 5273 5276 5281 5288 5298 5309 5316 5323 5331 5340 5348 5356 5365 5372
5575 5564 5552 5539 5528 5516 5503 5489 5475 5461 5447 5433 5419 5404 5389 5374 5356 5338 5319 5299 5285 5276 5269 5265 5264 5264 5265 5266 5266 5267 5269 5273 5280 5288 5298 5305 5313 5321 5329 5338 5347 5355 5363
5574 5563 5551 5538 5527 5515 5503 5489 5475 5462 5448 5433 5420 5405 5390 5374 5357 5338 5320 5301 5284 5273 5267 5263 5260 5259 5260 5261 5262 5262 5264 5267 5272 5278 5286 5296 5304 5312 5320 5328 5336 5345 5353
5574 5563 5551 5539 5527 5516 5503 5489 5476 5462 5449 5436 5422 5408 5393 5379 5363 5345 5325 5305 5288 5274 5265 5260 5257 5256 5257 5257 5258 5259 5261 5262 5265 5270 5276 5283 5291 5300 5308 5317 5325 5334 5342